GW3100 Weather Reports


time (UTC)temp
C
wind
direction
speed
KPH
gust
KPH
rain 1hr
cm
rain 24hr
cm
rain mn
cm
humidity
%
barometer
mb
20260503195547 28 213 0.0 0.0 0.00 0.00 0.00 41 1011.8
20260503195044 28 215 0.0 4.8 0.00 0.00 0.00 41 1011.8
20260503194541 28 203 0.0 1.6 0.00 0.00 0.00 41 1011.8
20260503194041 28 206 4.8 6.4 0.00 0.00 0.00 40 1011.8
20260503193538 28 209 0.0 0.0 0.00 0.00 0.00 40 1012.2
20260503193033 28 182 0.0 3.2 0.00 0.00 0.00 40 1012.2
20260503192530 28 203 0.0 3.2 0.00 0.00 0.00 41 1012.1
20260503192026 28 223 0.0 0.0 0.00 0.00 0.00 40 1012.3
20260503191522 27 227 0.0 4.8 0.00 0.00 0.00 41 1012.2
20260503191019 27 239 3.2 4.8 0.00 0.00 0.00 42 1012.2
20260503190516 27 193 0.0 3.2 0.00 0.00 0.00 41 1012.3
20260503190014 27 198 0.0 3.2 0.00 0.00 0.00 42 1012.4
20260503185509 26 219 0.0 3.2 0.00 0.00 0.00 42 1012.4
20260503185004 26 207 4.8 4.8 0.00 0.00 0.00 43 1012.7
20260503184500 26 201 6.4 6.4 0.00 0.00 0.00 45 1012.4
20260503183956 26 224 4.8 4.8 0.00 0.00 0.00 45 1012.6
20260503183453 26 204 1.6 1.6 0.00 0.00 0.00 46 1012.8
20260503182950 25 227 0.0 4.8 0.00 0.00 0.00 46 1012.8
20260503182449 25 201 0.0 1.6 0.00 0.00 0.00 48 1012.8
20260503181946 25 200 0.0 6.4 0.00 0.00 0.00 47 1012.9
20260503181444 25 197 1.6 3.2 0.00 0.00 0.00 49 1012.8
20260503180939 24 203 0.0 3.2 0.00 0.00 0.00 50 1013.0
20260503180438 23 203 1.6 4.8 0.00 0.00 0.00 49 1012.9
20260503175934 23 231 3.2 3.2 0.00 0.00 0.00 50 1013.1
20260503175432 23 200 1.6 4.8 0.00 0.00 0.00 52 1013.1
20260503174928 23 199 0.0 4.8 0.00 0.00 0.00 52 1012.9
20260503174426 23 204 0.0 1.6 0.00 0.00 0.00 52 1013.3
20260503173926 22 205 3.2 4.8 0.00 0.00 0.00 54 1013.4
20260503173423 22 199 0.0 3.2 0.00 0.00 0.00 57 1013.3
20260503172920 22 232 1.6 3.2 0.00 0.00 0.00 57 1013.3
20260503172417 21 201 1.6 1.6 0.00 0.00 0.00 59 1013.3
20260503171913 21 206 0.0 3.2 0.00 0.00 0.00 60 1013.3
20260503171410 21 197 3.2 3.2 0.00 0.00 0.00 60 1013.3
20260503170908 21 209 3.2 4.8 0.00 0.00 0.00 62 1013.5
20260503170403 21 195 0.0 1.6 0.00 0.00 0.00 63 1013.4
20260503150756 13 199 0.0 0.0 0.00 0.00 0.00 92 1014.1
20260503150251 13 199 0.0 0.0 0.00 0.00 0.00 94 1013.9
20260503140216 11 193 0.0 0.0 0.00 0.00 0.00 97 1013.9
20260503131146 10 202 0.0 0.0 0.00 0.00 0.00 98 1013.5
20260503130643 10 202 0.0 0.0 0.00 0.00 0.00 98 1013.6
20260503130141 10 196 0.0 0.0 0.00 0.00 0.00 97 1013.6
20260503120106 10 191 0.0 0.0 0.00 0.00 0.00 97 1013.9
20260503110533 11 202 0.0 0.0 0.00 0.00 0.00 97 1013.6
20260503090420 12 194 0.0 0.0 0.00 0.00 0.00 94 1014.1
20260503081347 13 190 0.0 0.0 0.00 0.00 0.00 93 1014.1
20260503080843 13 193 0.0 0.0 0.00 0.00 0.00 93 1014.0
20260503080340 13 193 0.0 0.0 0.00 0.00 0.00 93 1013.8
20260503072817 13 188 0.0 0.0 0.00 0.00 0.00 91 1014.2
20260503072314 13 191 0.0 0.0 0.00 0.00 0.00 91 1014.2
20260503071809 14 183 0.0 0.0 0.00 0.00 0.00 90 1013.9
20260503071302 14 193 0.0 0.0 0.00 0.00 0.00 90 1014.1
20260503070757 14 197 0.0 0.0 0.00 0.00 0.00 90 1014.3
20260503070256 14 196 0.0 0.0 0.00 0.00 0.00 89 1014.0
20260503060215 15 194 0.0 0.0 0.00 0.08 0.08 86 1013.9
20260503054702 15 192 0.0 0.0 0.00 0.08 0.08 86 1014.2
20260503054159 15 192 0.0 0.0 0.00 0.08 0.08 85 1014.1
20260503053657 16 192 0.0 0.0 0.00 0.08 0.08 84 1013.9
20260503053155 16 192 0.0 0.0 0.00 0.08 0.08 83 1013.8
20260503052651 16 196 0.0 0.0 0.00 0.08 0.08 82 1013.8
20260503052148 16 193 0.0 0.0 0.00 0.08 0.08 81 1013.7
20260503051643 17 191 0.0 0.0 0.00 0.08 0.08 80 1013.9
20260503051141 17 197 0.0 0.0 0.00 0.08 0.08 79 1013.9
20260503050638 17 198 0.0 0.0 0.00 0.08 0.08 79 1013.9
20260503050134 17 209 0.0 0.0 0.00 0.08 0.08 78 1014.1
20260503045632 17 200 0.0 0.0 0.00 0.08 0.08 79 1013.9
20260503045129 17 201 0.0 0.0 0.00 0.08 0.08 79 1014.0
20260503044625 17 202 0.0 0.0 0.00 0.08 0.08 79 1014.3
20260503044123 17 194 0.0 0.0 0.00 0.08 0.08 79 1014.5
20260503043620 17 202 0.0 0.0 0.00 0.08 0.08 78 1014.0
20260503043116 17 198 0.0 0.0 0.00 0.08 0.08 78 1014.4
20260503042613 17 195 0.0 0.0 0.00 0.08 0.08 79 1014.4
20260503042109 17 194 0.0 0.0 0.00 0.08 0.08 78 1014.4
20260503041605 17 196 0.0 0.0 0.00 0.08 0.08 77 1014.2
20260503041104 17 194 0.0 0.0 0.00 0.08 0.08 76 1014.3
20260503040601 17 201 0.0 0.0 0.00 0.08 0.08 76 1014.1
20260503040058 17 198 0.0 0.0 0.00 0.08 0.08 76 1013.9
20260503035554 17 199 0.0 0.0 0.00 0.08 0.08 76 1014.1
20260503035052 17 196 0.0 0.0 0.00 0.08 0.08 76 1014.2
20260503034549 17 198 0.0 0.0 0.00 0.08 0.08 76 1014.0
20260503034046 17 200 0.0 0.0 0.00 0.08 0.08 75 1014.0
20260503033543 17 195 0.0 0.0 0.00 0.08 0.08 75 1013.9
20260503033041 17 200 0.0 0.0 0.00 0.08 0.08 75 1013.9
20260503032539 17 197 0.0 0.0 0.00 0.08 0.08 74 1014.0
20260503032037 17 198 0.0 0.0 0.00 0.08 0.08 74 1014.0
20260503031535 17 192 0.0 0.0 0.00 0.08 0.08 74 1014.1
20260503031032 18 192 0.0 0.0 0.00 0.08 0.08 74 1013.9
20260503030527 18 193 0.0 0.0 0.00 0.08 0.08 74 1013.9
20260503030025 18 181 0.0 0.0 0.00 0.08 0.08 74 1013.9
20260503025521 18 197 0.0 3.2 0.00 0.08 0.08 72 1013.7
20260503025020 18 189 0.0 3.2 0.00 0.08 0.08 72 1013.9
20260503024515 18 171 0.0 3.2 0.00 0.08 0.08 73 1013.9
20260503024013 18 175 3.2 3.2 0.00 0.08 0.08 72 1013.7
20260503023509 18 213 1.6 6.4 0.00 0.08 0.08 72 1013.8
20260503023007 18 186 0.0 4.8 0.00 0.08 0.08 72 1013.6
20260503022502 19 155 1.6 9.7 0.00 0.08 0.08 70 1013.8
20260503021957 20 179 0.0 6.4 0.00 0.08 0.08 68 1013.8
20260503021454 20 197 3.2 4.8 0.00 0.08 0.08 66 1013.7
20260503020951 21 74 3.2 6.4 0.00 0.08 0.08 62 1013.5
20260503020449 21 201 0.0 3.2 0.00 0.08 0.08 61 1013.5
20260503015945 21 194 0.0 1.6 0.00 0.08 0.08 60 1013.2
20260503015442 21 195 0.0 0.0 0.00 0.08 0.08 62 1013.3
20260503014938 21 198 0.0 0.0 0.00 0.08 0.08 61 1013.1
20260503014435 21 197 0.0 0.0 0.00 0.08 0.08 60 1012.9
20260503013933 21 195 0.0 0.0 0.00 0.08 0.08 59 1012.6
20260503013430 21 195 0.0 0.0 0.00 0.08 0.08 59 1012.8
20260503012927 21 199 0.0 1.6 0.00 0.08 0.08 60 1012.7
20260503012426 21 197 0.0 0.0 0.00 0.08 0.08 60 1012.8
20260503011921 21 191 0.0 0.0 0.00 0.08 0.08 59 1013.0
20260503011418 21 203 0.0 0.0 0.00 0.08 0.08 58 1012.9
20260503010915 22 201 0.0 0.0 0.00 0.08 0.08 58 1012.8
20260503010412 22 201 0.0 0.0 0.00 0.08 0.08 59 1012.9
20260503005909 22 201 0.0 0.0 0.00 0.08 0.08 58 1012.8
20260503005407 22 200 0.0 0.0 0.00 0.08 0.08 57 1012.9
20260503004903 22 202 0.0 0.0 0.00 0.08 0.08 57 1012.8
20260503004400 22 203 0.0 1.6 0.00 0.08 0.08 56 1012.9
20260503003858 22 199 0.0 0.0 0.00 0.08 0.08 56 1012.8
20260503003354 22 200 0.0 1.6 0.00 0.08 0.08 55 1012.9
20260503002851 22 229 3.2 3.2 0.00 0.08 0.08 54 1012.9
20260503002349 23 201 0.0 0.0 0.00 0.08 0.08 53 1012.8
20260503001845 22 232 0.0 1.6 0.00 0.08 0.08 53 1012.8
20260503001341 22 200 0.0 1.6 0.00 0.08 0.08 56 1012.8
20260503000839 23 217 0.0 1.6 0.00 0.08 0.08 54 1012.9
20260503000336 23 205 0.0 1.6 0.00 0.08 0.08 53 1012.9
20260502235833 23 197 0.0 0.0 0.00 0.08 0.08 56 1013.0
20260502235330 23 209 0.0 1.6 0.00 0.08 0.08 55 1012.7
20260502234826 22 198 0.0 0.0 0.00 0.08 0.08 56 1013.3
20260502234324 23 210 0.0 3.2 0.00 0.08 0.08 53 1013.2
20260502233820 24 232 3.2 3.2 0.00 0.08 0.08 51 1013.1
20260502233316 24 201 0.0 1.6 0.00 0.08 0.08 53 1013.4
20260502232813 23 203 0.0 0.0 0.00 0.08 0.08 53 1013.1
20260502232310 23 230 3.2 3.2 0.00 0.08 0.08 53 1013.4
20260502231806 23 221 0.0 3.2 0.00 0.08 0.08 52 1013.3
20260502231304 23 198 0.0 3.2 0.00 0.08 0.08 54 1013.5
20260502230803 22 205 0.0 1.6 0.00 0.08 0.08 56 1013.6
20260502230300 23 220 1.6 1.6 0.00 0.08 0.08 54 1013.7
20260502225756 23 205 3.2 6.4 0.00 0.08 0.08 54 1013.6
20260502225253 22 210 0.0 3.2 0.00 0.08 0.08 54 1013.7
20260502224750 22 188 1.6 1.6 0.00 0.08 0.08 57 1013.8
20260502224246 22 199 0.0 3.2 0.00 0.08 0.08 56 1014.0
20260502223744 22 205 0.0 4.8 0.00 0.08 0.08 56 1014.0
20260502223242 22 214 0.0 1.6 0.00 0.08 0.08 54 1014.1
20260502222739 22 209 0.0 1.6 0.00 0.08 0.08 55 1014.2
20260502222236 22 205 0.0 3.2 0.00 0.08 0.08 57 1014.2
20260502221731 21 195 0.0 4.8 0.00 0.08 0.08 55 1014.5
20260502221228 22 225 0.0 4.8 0.00 0.08 0.08 54 1014.4
20260502220719 22 205 0.0 4.8 0.00 0.08 0.08 55 1014.5
20260502220215 21 198 0.0 0.0 0.00 0.08 0.08 59 1014.8
20260502215712 21 233 3.2 3.2 0.00 0.08 0.08 55 1014.7
20260502215204 21 203 0.0 4.8 0.00 0.08 0.08 57 1014.7
20260502214701 21 207 0.0 4.8 0.00 0.08 0.08 57 1015.0
20260502214158 21 237 1.6 1.6 0.00 0.08 0.08 58 1014.9
20260502213655 21 202 0.0 3.2 0.00 0.08 0.08 58 1014.9
20260502213152 20 202 3.2 6.4 0.00 0.08 0.08 59 1015.1
20260502212651 20 203 0.0 4.8 0.00 0.08 0.08 58 1015.2
20260502212149 20 245 1.6 3.2 0.00 0.08 0.08 59 1015.2
20260502211644 20 190 1.6 3.2 0.00 0.08 0.08 60 1015.4
20260502211141 20 214 3.2 4.8 0.00 0.08 0.08 58 1015.1
20260502210639 20 208 0.0 3.2 0.00 0.08 0.08 60 1015.3
20260502210136 20 230 0.0 0.0 0.00 0.08 0.08 62 1015.2
20260502205632 20 201 0.0 1.6 0.00 0.08 0.08 62 1015.5
20260502205129 20 191 0.0 3.2 0.00 0.08 0.08 62 1015.8
20260502204626 19 176 3.2 3.2 0.00 0.08 0.08 62 1015.8
20260502204124 19 137 3.2 3.2 0.00 0.08 0.08 63 1015.8
20260502203620 19 186 0.0 0.0 0.00 0.08 0.08 63 1016.1
20260502203118 18 199 0.0 4.8 0.00 0.08 0.08 66 1016.1
20260502202613 17 200 0.0 1.6 0.00 0.08 0.08 69 1016.1
20260502202112 18 198 0.0 0.0 0.00 0.08 0.08 67 1016.2
20260502201608 17 203 0.0 0.0 0.00 0.08 0.08 68 1016.2
20260502201104 17 203 0.0 0.0 0.00 0.08 0.08 69 1016.4
20260502200559 18 202 0.0 3.2 0.00 0.08 0.08 66 1016.4
20260502200052 17 197 0.0 0.0 0.00 0.08 0.08 67 1016.3